Weather History for Lancaster, OH

Change the Weather History Date:

Wednesday, October 10, 2012

  Actual Average Record
Temperature  
Mean Temperature 48 °F -  
Max Temperature 57 °F 65 °F 89 °F (1939)
Min Temperature 30 °F 42 °F 30 °F (2012)
Degree Days  
Heating Degree Days 17    
Moisture  
Dew Point 37 °F    
Average Humidity 70    
Maximum Humidity 89    
Minimum Humidity 39    
Precipitation  
Precipitation 0.00 in - - ()
Sea Level Pressure  
Sea Level Pressure 30.04 in    
Wind  
Wind Speed 7 mph (West)    
Max Wind Speed 16 mph    
Max Gust Speed 24 mph    
Visibility 10 miles    
Events Rain    
Averages and records for this station are not official NWS values.
T = Trace of Precipitation, MM = Missing Value Source: NWS Daily Summary

Daily Weather History Graph

Daily Weather History Graph

Search for Another Location

Airport:

Trip Planner

Search our weather history database for the weather conditions in past years. The results will help you decide how hot, cold, wet, or windy it might be!

Date:

Astronomy

Oct. 10, 2012 Rise Set
Actual Time 7:36 AM EDT 6:58 PM EDT
Civil Twilight 7:09 AM EDT 7:25 PM EDT
Nautical Twilight 6:37 AM EDT 7:56 PM EDT
Astronomical Twilight 6:06 AM EDT 8:27 PM EDT
Moon 2:11 AM EDT (10/10) 3:59 PM EDT (10/10)
Length of Visible Light 12h 15m
Length of Day
11h 21m
Waning Crescent, 27% of the Moon is Illuminated
Oct 10
Waning Crescent
Oct 15
New
Oct 21
First Quarter
Oct 29
Full
Nov 6
Last Quarter

Hourly Weather History & Observations

Time (EDT) Temp. Windchill Dew Point Humidity Pressure Visibility Wind Dir Wind Speed Gust Speed Precip Events Conditions
12:53 AM 43.0 °F 40.3 °F 39.9 °F 89% 29.99 in 10.0 mi SSE 4.6 mph - N/A   Clear
1:53 AM 46.0 °F 42.5 °F 41.0 °F 83% 29.98 in 10.0 mi SSW 6.9 mph - N/A   Clear
2:53 AM 44.1 °F 40.8 °F 39.9 °F 85% 29.97 in 10.0 mi SSW 5.8 mph - N/A   Clear
3:53 AM 42.1 °F 38.4 °F 39.0 °F 89% 29.95 in 10.0 mi South 5.8 mph - N/A   Clear
4:53 AM 43.0 °F 40.3 °F 39.0 °F 86% 29.95 in 10.0 mi South 4.6 mph - N/A   Clear
5:53 AM 46.0 °F 44.8 °F 42.1 °F 86% 29.94 in 10.0 mi South 3.5 mph - N/A   Scattered Clouds
6:53 AM 46.9 °F - 42.1 °F 83% 29.94 in 10.0 mi South 3.5 mph - N/A   Overcast
7:53 AM 48.0 °F - 42.1 °F 80% 29.96 in 10.0 mi SW 4.6 mph - N/A   Overcast
8:53 AM 48.9 °F - 43.0 °F 80% 29.98 in 10.0 mi WSW 8.1 mph - N/A   Overcast
9:31 AM 50.0 °F - 42.8 °F 76% 29.98 in 10.0 mi West 10.4 mph - N/A   Overcast
9:53 AM 48.9 °F - 44.1 °F 83% 29.99 in 10.0 mi WSW 8.1 mph - 0.00 in Rain Light Rain
10:02 AM 48.2 °F - 44.6 °F 87% 29.99 in 10.0 mi West 9.2 mph - 0.00 in Rain Light Rain
10:33 AM 48.2 °F - 44.6 °F 87% 30.00 in 10.0 mi West 8.1 mph - 0.00 in   Overcast
10:53 AM 50.0 °F - 44.1 °F 80% 30.01 in 10.0 mi West 8.1 mph - 0.00 in   Overcast
11:53 AM 50.0 °F - 43.0 °F 77% 30.04 in 10.0 mi West 9.2 mph 17.3 mph N/A   Overcast
12:12 PM 51.8 °F - 42.8 °F 71% 30.03 in 10.0 mi West 15.0 mph 20.7 mph N/A   Mostly Cloudy
12:49 PM 53.6 °F - 37.4 °F 54% 30.04 in 10.0 mi WNW 16.1 mph 24.2 mph N/A   Mostly Cloudy
12:53 PM 52.0 °F - 37.0 °F 57% 30.04 in 10.0 mi WNW 12.7 mph 24.2 mph N/A   Mostly Cloudy
1:53 PM 53.1 °F - 36.0 °F 52% 30.04 in 10.0 mi West 13.8 mph - N/A   Partly Cloudy
2:53 PM 57.0 °F - 33.1 °F 40% 30.03 in 10.0 mi NW 16.1 mph 23.0 mph N/A   Mostly Cloudy
3:53 PM 55.9 °F - 30.9 °F 39% 30.05 in 10.0 mi WNW 11.5 mph 19.6 mph N/A   Partly Cloudy
4:53 PM 54.0 °F - 30.0 °F 40% 30.06 in 10.0 mi NW 13.8 mph 21.9 mph N/A   Partly Cloudy
5:53 PM 53.1 °F - 30.9 °F 43% 30.09 in 10.0 mi NW 13.8 mph 23.0 mph N/A   Scattered Clouds
6:53 PM 50.0 °F - 30.0 °F 46% 30.12 in 10.0 mi WNW 11.5 mph - N/A   Clear
7:53 PM 46.9 °F - 30.0 °F 52% 30.16 in 10.0 mi WNW 8.1 mph - N/A   Clear
8:53 PM 43.0 °F 41.3 °F 28.9 °F 58% 30.19 in 10.0 mi WNW 3.5 mph - N/A   Clear
9:53 PM 39.0 °F 36.8 °F 28.9 °F 67% 30.22 in 10.0 mi WNW 3.5 mph - N/A   Clear
10:53 PM 39.0 °F - 28.0 °F 65% 30.24 in 10.0 mi Calm Calm - N/A   Clear
11:53 PM 30.9 °F - 28.0 °F 89% 30.25 in 10.0 mi Calm Calm - N/A   Clear